User: anonymous   Login
Location: Unspecified
(0.0000°N, 0.0000°E)
Time: 15:06:46
(UTC+01:00)
Language:

AO-40 - Orbit

View from above orbital plane
View from above orbital plane
View from above satellite
View from above satellite

Ground track
Ground track

The orbit data is extracted from the following two-line orbital elements,

1 26609U 00072B   16041.82363256 -.00000106  00000-0  00000+0 0  9996
2 26609   9.0433 316.9488 7964700 309.9869   4.2501  1.25588143 70152
Epoch (UTC): 10 February 2016 19:46:01
Eccentricity: 0.7964700
inclination: 9.0433°
perigee height: 1007 km
apogee height: 58812 km
right ascension of ascending node: 316.9488°
argument of perigee: 309.9869°
revolutions per day: 1.25588143
mean anomaly at epoch: 4.2501°
orbit number at epoch: 7015

The dashed part of the orbit path shows where the satellite is in the earth's shadow,  

DLR